Flag for Indonesia Weather past 2 weeks in Makassar, South Sulawesi, Indonesia

79 °F

Passing clouds.

Feels Like: 81 °F
Forecast: 78 / 91 °F
Wind: 3 mph from Northeast

Location: Ujung Pandang / Hasanuddin

Current Time: Oct 11, 2015 at 2:50:09 AM

Latest Report: Oct 11, 2015 at 2:00 AM

Visibility: 5 mi

Pressure: 29.86 "Hg

Humidity: 65%

Dew point: 66 °F

Location of MakassarLocation

Historic Weather in Makassar — Graph


Makassar temperature yesterday

Maximum temperature yesterday: 97 °F (at 11:00 AM)
Minimum temperature yesterday: 75 °F (at 5:00 AM)
Average temperature yesterday: 86 °F

Past Weeks' High & Low Weather Summary

High99 °F (Oct 2, 12:00 PM)89% (Sep 30, 12:30 AM)29.98 "Hg (Sep 30, 12:30 AM)
Low68 °F (Oct 1, 6:00 AM)21% (Oct 2, 1:30 PM)29.71 "Hg (Sep 27, 4:00 PM)
Average84 °F54%29.87 "Hg
* Reported Sep 26 1:00 AM — Oct 11 1:30 AM, Makassar, Weather by CustomWeather, © 2015

Note: Actual official high and low records may vary slightly from our data, if they occured in-between our weather recording intervals... More about our weather records


Makassar weather history for previous 24 hours

Time TempWeatherWind HumidityBarometerVisibility
1:30 AM
Sun, Oct 11
79 °FPassing clouds.3 mph65%29.89 "Hg5 mi
1:00 AM81 °FPassing clouds.3 mph62%29.89 "Hg5 mi
12:30 AM81 °FPassing clouds.5 mph62%29.89 "Hg5 mi
12:00 AM81 °FPassing clouds.5 mph62%29.89 "Hg5 mi
11:30 PM
Sat, Oct 10
81 °FPassing clouds.3 mph62%29.89 "Hg5 mi
11:00 PM81 °FPassing clouds.3 mph58%29.92 "Hg5 mi
10:30 PM81 °FPassing clouds.5 mph58%29.92 "Hg5 mi
10:00 PM82 °FPassing clouds.6 mph55%29.92 "Hg5 mi
9:30 PM82 °FPassing clouds.7 mph51%29.92 "Hg5 mi
9:00 PM81 °FPassing clouds.6 mph54%29.89 "Hg5 mi
8:30 PM82 °FPassing clouds.3 mph51%29.89 "Hg5 mi
8:00 PM84 °FPassing clouds.5 mph48%29.89 "Hg5 mi
7:30 PM88 °FPassing clouds.6 mph46%29.86 "Hg5 mi
7:00 PM88 °FPassing clouds.6 mph46%29.86 "Hg5 mi
6:30 PM88 °FPassing clouds.3 mph52%29.86 "Hg5 mi
6:00 PM88 °FPassing clouds.6 mph52%29.83 "Hg5 mi
5:30 PM90 °FPassing clouds.6 mph52%29.83 "Hg5 mi
5:00 PM91 °FPassing clouds.6 mph49%29.80 "Hg5 mi
4:30 PM91 °FPassing clouds.5 mph49%29.80 "Hg5 mi
4:00 PM93 °FPassing clouds.8 mph49%29.80 "Hg5 mi
3:30 PM91 °FPassing clouds.9 mph52%29.80 "Hg5 mi
3:00 PM93 °FPassing clouds.9 mph47%29.80 "Hg5 mi
2:30 PM93 °FPassing clouds.12 mph47%29.80 "Hg5 mi
2:00 PM95 °FPassing clouds.13 mph44%29.80 "Hg5 mi
12:30 PM95 °FPassing clouds.12 mph47%29.86 "Hg5 mi
12:00 PM95 °FPassing clouds.10 mph44%29.86 "Hg5 mi
11:00 AM97 °FPassing clouds.8 mph32%29.89 "Hg5 mi
10:00 AM95 °FPassing clouds.10 mph34%29.92 "Hg5 mi
9:30 AM93 °FPassing clouds.12 mph36%29.92 "Hg5 mi
9:00 AM91 °FPassing clouds.9 mph38%29.92 "Hg5 mi
8:30 AM90 °FPassing clouds.8 mph43%29.92 "Hg5 mi
8:00 AM88 °FPassing clouds.6 mph49%29.92 "Hg5 mi
7:30 AM84 °FPassing clouds.3 mph58%29.92 "Hg5 mi
7:00 AM81 °FPassing clouds.3 mph66%29.92 "Hg5 mi
6:30 AM77 °FPassing clouds.2 mph69%29.92 "Hg5 mi
6:00 AM75 °FPassing clouds.3 mph69%29.89 "Hg5 mi
5:00 AM75 °FPassing clouds.2 mph69%29.89 "Hg5 mi
4:30 AM77 °FPassing clouds.6 mph65%29.89 "Hg5 mi
4:00 AM79 °FPassing clouds.3 mph61%29.86 "Hg5 mi
3:30 AM77 °FPassing clouds.6 mph65%29.86 "Hg5 mi
3:00 AM79 °FPassing clouds.3 mph61%29.86 "Hg5 mi
2:00 AM79 °FPassing clouds.6 mph70%29.86 "Hg5 mi
Weather by CustomWeather, © 2015

See weather overviewHow to use our weather pages